Change the Weather History Date:

Monday, November 28, 2011

  Actual Average Record
Temperature  
Mean Temperature 32 °F -  
Max Temperature 37 °F 30 °F 49 °F (1986)
Min Temperature 26 °F 15 °F -16 °F (1976)
Degree Days  
Heating Degree Days 34    
Moisture  
Dew Point 24 °F    
Average Humidity 75    
Maximum Humidity 81    
Minimum Humidity 57    
Precipitation  
Precipitation 0.00 in - - ()
Sea Level Pressure  
Sea Level Pressure 30.11 in    
Wind  
Wind Speed 9 mph (SW)    
Max Wind Speed 14 mph    
Max Gust Speed 23 mph    
Visibility 10 miles    
Events      
Averages and records for this station are not official NWS values.
T = Trace of Precipitation, MM = Missing Value Source: NWS Daily Summary

Daily Weather History Graph

Daily Weather History Graph

Search for Another Location

Airport or City:

Trip Planner

Search our weather history database for the weather conditions in past years. The results will help you decide how hot, cold, wet, or windy it might be!

Date:

Astronomy

Nov. 28, 2011 Rise Set
Actual Time 7:23 AM CST 4:19 PM CST
Civil Twilight 6:49 AM CST 4:53 PM CST
Nautical Twilight 6:11 AM CST 5:31 PM CST
Astronomical Twilight 5:35 AM CST 6:07 PM CST
Moon 10:30 AM CST (11/28) 8:09 PM CST (11/28)
Length of Visible Light 10h 04m
Length of Day
8h 56m
Waxing Crescent, 16% of the Moon is Illuminated
Nov 28
Waxing Crescent
Dec 2
First Quarter
Dec 10
Full
Dec 17
Last Quarter
Dec 24
New

Hourly Weather History & Observations

Time (CST) Temp. Windchill Dew Point Humidity Pressure Visibility Wind Dir Wind Speed Gust Speed Precip Events Conditions
12:53 AM 28.0 °F 20.0 °F 21.9 °F 78% 30.18 in 10.0 mi SSW 8.1 mph - N/A   Overcast
1:53 AM 28.0 °F 19.3 °F 21.9 °F 78% 30.18 in 10.0 mi SSW 9.2 mph - N/A   Overcast
2:53 AM 28.0 °F 18.6 °F 21.9 °F 78% 30.17 in 10.0 mi SW 10.4 mph - N/A   Overcast
3:01 AM 26.6 °F 16.2 °F 21.2 °F 80% 30.13 in 10.0 mi SSW 11.5 mph - N/A   Overcast
3:53 AM 27.0 °F 18.7 °F 21.9 °F 81% 30.14 in 10.0 mi SSW 8.1 mph - N/A   Overcast
4:53 AM 27.0 °F 16.7 °F 21.9 °F 81% 30.13 in 10.0 mi SSW 11.5 mph - N/A   Overcast
5:53 AM 28.0 °F 18.1 °F 23.0 °F 81% 30.12 in 10.0 mi SSW 11.5 mph - N/A   Overcast
7:53 AM 28.0 °F 19.3 °F 23.0 °F 81% 30.10 in 10.0 mi SW 9.2 mph - N/A   Overcast
8:53 AM 28.0 °F 18.6 °F 23.0 °F 81% 30.09 in 10.0 mi SSW 10.4 mph - N/A   Overcast
9:44 AM 30.2 °F 21.3 °F 24.8 °F 80% 30.03 in 10.0 mi SSW 10.4 mph 19.6 mph N/A   Scattered Clouds
10:53 AM 33.1 °F 25.5 °F 24.1 °F 70% 30.04 in 10.0 mi SSW 9.2 mph - N/A   Clear
11:53 AM 33.1 °F 23.9 °F 24.1 °F 70% 30.03 in 10.0 mi SSW 12.7 mph 20.7 mph N/A   Clear
12:53 PM 37.0 °F 28.5 °F 25.0 °F 62% 30.01 in 10.0 mi SSW 13.8 mph 23.0 mph N/A   Clear
1:53 PM 36.0 °F 29.0 °F 24.1 °F 62% 30.01 in 10.0 mi SSW 9.2 mph - N/A   Clear
2:53 PM 37.0 °F 28.5 °F 23.0 °F 57% 30.03 in 10.0 mi WSW 13.8 mph 19.6 mph N/A   Clear
3:53 PM 34.0 °F 27.2 °F 24.1 °F 67% 30.06 in 10.0 mi SW 8.1 mph - N/A   Clear
4:53 PM 32.0 °F 24.8 °F 24.1 °F 73% 30.09 in 10.0 mi SW 8.1 mph - N/A   Clear
5:53 PM 30.9 °F 26.2 °F 25.0 °F 79% 30.11 in 10.0 mi WSW 4.6 mph - N/A   Clear
6:53 PM 32.0 °F 24.8 °F 25.0 °F 75% 30.12 in 10.0 mi SW 8.1 mph - N/A   Clear
7:53 PM 32.0 °F 26.4 °F 25.0 °F 75% 30.14 in 10.0 mi WSW 5.8 mph - N/A   Clear
8:53 PM 34.0 °F 29.8 °F 26.1 °F 73% 30.16 in 10.0 mi NNW 4.6 mph - N/A   Clear
10:53 PM 33.1 °F 26.1 °F 27.0 °F 78% 30.22 in 10.0 mi NNW 8.1 mph - N/A   Clear
11:53 PM 32.0 °F 28.7 °F 25.0 °F 75% 30.25 in 10.0 mi NNW 3.5 mph - N/A   Clear